Weather in Bely YU

Russia / Komi Republic     65°16′31″N   57°07′11″E
temp.,
°C
wind,
m/s
gust,
m/s
humid.,
%
clouds,
%
prec.,
mm/h
press.,
hPa
HPBL,
m
17 april, sat
sat1700:000wnw81386100 1.9 1019883
03:00−1wnw81485100 2.0 10191080
06:00−2wnw51077100 0.0 1020817
09:00−1ssw3795100 1.5 1016504
12:00+1nw71286100 2.6 10141097
15:000nnw6108667 3.9 10151119
18:00−2nnw6127758 0.4 1017727
21:00−5nnw6129088 0.5 1021573
18 april, sun
sun1800:00−5nne5109298 0.1 1025515
03:00−9nne610735 0.2 1031447
06:00−9nne57550 0.0 1034440
09:00−6n45480 0.0 1036720
12:00−4n45415 0.0 10371356
15:00−3n4646100 0.0 10371483
18:00−4n465712 0.0 10381119
21:00−5n36695 0.0 1038628
19 april, mon
mon1900:00−6nnw127536 0.0 1038185
03:00−6wsw138068 0.0 1038148
06:00−4sw357266 0.0 1037402
09:00−1wsw575185 0.0 1035825
12:00+3wsw683579 0.0 10331126
15:00+4w51043100 0.0 10311164
18:00+3w51157100 0.0 1030467
21:00+2w41171100 0.0 1029462
20 april, tue
tue2000:00+1w41077100 0.0 1029353
03:000w49825 0.0 1029281
06:00+2w410805 0.0 1029423
09:00+5wnw467028 0.0 1028721
12:00+7wnw576116 0.0 10281062
15:00+8nw46605 0.0 1029974
18:00+6nw24765 0.0 1029140
21:00+3n22895 0.0 103020
21 april, wed
wed2100:00+1ne11945 0.0 103110
03:00+1s11955 0.0 103110
06:00+3s22850 0.0 1031146
09:00+7ssw236920 0.0 1031453
12:00+10s34545 0.0 10301077
15:00+11ssw454973 0.0 10281272
18:00+10s585870 0.0 1028559
21:00+6sse5117928 0.0 1027287